Theta_e
311 309 312 313 314 316 317 316 316 314 312 311 310 308 306 305 304 303 303 304 306 308 309 310 315 316 315 314 325 327 318 319 323 324 326 326 323 324 326 327 326 327 328 329 329
309 310 310 310 313 313 314 315 316 316 315 314 312 310 309 307 306 304 304 303 303 304 305 307 308 309 312 319 324 323 316 316 318 323 325 325 324 325 324 326 328 328 328 328 329
309 308 309 311 309 310 312 314 315 316 317 316 313 312 310 309 309 305 303 303 303 302 303 306 308 310 317 319 322 322 319 317 321 324 324 324 324 326 322 322 325 326 325 328 328
306 305 307 308 310 309 308 311 313 314 316 317 316 312 310 312 307 311 312 306 303 302 303 307 310 315 321 319 321 324 324 322 322 324 322 322 323 324 325 323 325 327 327 326 328
307 306 305 306 308 310 309 308 311 311 314 316 317 314 311 312 312 312 316 315 308 302 303 307 313 319 318 319 319 319 320 323 323 322 321 321 321 320 322 325 325 326 327 327 328
307 306 305 304 304 308 308 309 308 310 311 314 316 317 313 311 312 311 309 314 314 306 303 310 312 316 318 318 314 314 316 318 319 320 320 320 320 321 322 323 323 325 325 324 326
305 306 306 304 305 305 305 307 308 308 309 311 314 316 314 313 313 309 309 308 314 311 303 308 316 319 318 318 318 317 317 315 317 319 319 320 318 318 321 322 323 323 323 323 322
303 304 305 305 304 303 304 304 306 308 307 309 312 313 316 315 315 314 310 308 317 312 305 306 311 319 319 319 318 318 316 313 313 317 319 318 314 316 319 320 320 321 321 321 320
302 303 304 304 304 303 303 303 303 305 306 308 311 311 315 315 315 314 314 310 318 317 308 313 313 317 320 316 315 315 311 314 313 315 317 317 316 316 317 318 319 319 319 319 318
301 302 303 304 304 303 303 302 302 304 305 307 310 312 313 313 315 315 314 310 314 319 318 317 316 313 313 317 309 315 315 313 311 312 315 316 316 316 318 317 317 318 318 317 317
299 301 302 303 303 303 302 303 303 305 305 307 310 311 312 314 314 313 313 312 309 316 318 317 315 314 311 315 312 312 315 313 314 313 316 314 315 315 314 314 315 315 315 316 317
299 299 301 301 301 302 302 302 303 305 305 304 306 310 311 313 312 313 313 312 312 314 316 317 316 312 310 313 315 314 315 313 314 313 315 313 313 311 311 312 313 314 315 316 316
298 298 299 300 301 302 302 301 301 303 304 306 306 306 311 312 312 312 312 311 311 314 315 313 311 312 313 315 317 316 314 313 313 314 313 313 311 309 309 312 313 314 315 316 317
297 298 298 299 300 301 302 301 302 302 305 303 306 308 308 311 312 312 312 310 311 313 314 315 312 311 312 313 316 316 315 312 314 314 312 311 306 303 307 307 311 313 315 315 317
295 297 298 298 301 301 301 301 302 301 305 302 305 306 307 309 311 312 312 310 312 311 313 313 312 311 312 313 314 313 314 316 314 314 314 312 313 309 310 310 310 311 314 316 317
295 296 298 298 298 301 300 301 301 302 304 304 305 308 308 309 310 311 312 311 310 312 312 310 312 311 311 311 313 312 312 314 313 314 316 312 311 307 306 309 311 313 315 316 316
295 296 298 298 298 300 300 301 302 303 302 305 307 308 307 309 309 311 312 312 312 313 314 312 311 311 312 313 312 312 313 308 315 316 313 308 311 309 308 309 310 311 313 313 313
296 296 296 298 298 299 301 301 303 301 300 304 306 307 307 307 308 310 311 312 311 312 313 315 314 312 310 313 314 316 314 310 310 312 312 309 313 312 309 310 311 313 312 313 313
296 296 296 297 298 299 300 302 302 297 300 302 305 307 307 307 306 308 310 310 311 311 313 314 315 310 310 312 313 315 316 310 308 302 306 310 308 310 309 308 311 312 312 312 313
296 297 295 297 299 300 300 301 300 301 301 301 299 304 307 307 308 308 309 309 310 311 311 309 314 309 311 312 312 313 312 315 312 312 311 311 310 310 311 310 308 309 310 310 309
296 296 297 298 297 299 299 300 299 300 302 302 300 298 303 306 307 307 308 307 309 311 312 310 310 309 310 313 314 314 314 313 313 314 313 310 309 306 309 309 309 307 308 309 309
297 296 296 296 299 299 299 298 299 298 300 301 302 301 300 304 307 307 308 307 309 310 312 311 312 308 311 310 311 313 313 313 313 311 313 309 310 307 306 306 309 307 308 309 309
296 296 297 298 299 299 297 298 298 297 297 299 298 301 301 301 305 306 307 306 307 309 310 311 311 313 312 309 309 313 313 312 312 309 313 314 312 307 307 306 308 308 308 309 309
296 296 297 298 298 296 294 293 298 298 298 298 299 300 301 301 301 301 302 305 307 308 309 310 310 312 312 309 309 312 312 312 312 314 313 312 311 308 307 306 306 307 308 309 309
296 294 295 298 296 295 295 293 297 296 297 298 295 299 300 299 300 300 301 301 303 308 309 309 310 309 309 308 309 311 311 312 313 313 313 312 310 310 307 306 307 309 309 308 308
294 294 295 288 297 297 297 295 295 296 297 297 295 298 300 299 300 298 304 306 307 306 308 308 310 308 308 309 308 308 310 311 312 313 312 311 310 309 308 309 308 308 308 307 306
295 296 296 296 296 297 295 295 295 294 297 298 298 297 300 299 300 300 300 301 301 305 308 308 309 309 310 308 308 309 309 309 311 311 312 312 311 309 304 307 308 309 308 307 304
Wind_Speed
17 26 27 25 23 19 16 18 17 15 14 14 14 14 15 18 20 22 24 25 19 19 19 15 10 6 3 2 1 1 4 1 4 5 3 2 2 1 2 4 5 4 4 4 4
24 20 21 29 28 26 22 18 18 18 16 14 13 13 14 16 20 26 27 20 15 15 14 14 11 8 4 2 2 3 3 7 3 2 0 2 1 1 3 4 4 4 5 6 6
23 26 22 19 25 30 28 24 23 18 18 16 13 12 13 13 17 19 16 18 21 18 14 11 7 6 6 6 5 5 6 4 4 1 4 5 3 3 5 3 5 3 3 5 9
28 25 27 25 21 22 27 28 25 22 19 17 16 13 12 9 6 2 4 10 21 23 18 13 7 8 5 5 6 4 9 6 2 4 2 3 7 6 4 3 7 2 3 5 9
27 26 27 27 23 20 19 24 26 28 23 18 17 15 14 12 19 4 4 7 10 23 22 17 14 9 6 5 4 4 4 11 15 8 8 8 10 9 10 8 7 4 3 6 8
26 26 27 26 26 23 21 18 21 25 26 22 18 19 20 16 17 19 16 7 6 10 22 19 7 9 6 4 6 3 8 5 6 9 8 5 8 6 4 14 16 11 8 8 9
26 26 26 23 22 20 25 20 18 19 24 25 22 21 31 27 12 4 21 17 6 5 21 21 7 7 5 2 11 1 1 3 7 9 6 0 8 9 18 15 13 14 14 13 14
29 28 27 27 29 30 26 24 20 17 19 21 22 22 24 24 29 29 12 11 8 7 16 18 18 5 2 1 2 2 2 1 3 13 8 8 11 4 14 21 26 22 19 21 24
30 29 28 28 26 23 31 28 26 22 17 17 22 21 13 16 33 29 25 11 8 6 12 7 14 7 4 4 2 2 3 5 5 13 5 9 8 4 12 22 21 20 20 18 19
29 31 29 27 26 24 18 25 24 24 23 19 20 10 26 8 24 31 23 21 14 7 10 11 7 4 4 7 10 7 5 6 6 2 6 6 9 11 9 5 10 14 17 19 23
30 29 29 27 28 23 20 16 15 12 23 21 4 24 4 13 15 24 33 27 17 16 8 13 7 17 19 13 1 6 5 7 2 3 3 7 9 20 19 17 24 34 31 27 27
27 29 28 27 28 29 25 28 21 5 9 40 39 19 29 13 13 24 27 24 15 15 8 7 24 9 9 9 7 3 5 5 3 3 2 5 11 13 14 15 25 29 26 27 27
30 29 28 28 26 28 32 37 30 25 7 12 34 41 18 22 7 25 33 32 18 17 19 19 4 19 11 12 14 15 11 3 1 1 1 5 14 9 8 16 16 22 26 27 25
31 26 27 26 25 29 33 31 26 22 5 8 13 20 36 16 21 16 35 25 8 23 17 16 23 9 5 15 16 15 8 6 5 3 5 2 11 9 2 7 6 18 24 27 23
32 26 28 31 17 24 32 29 23 19 7 9 20 13 36 31 12 28 33 26 14 10 11 15 12 18 9 17 15 7 8 14 5 5 2 5 3 4 2 5 6 12 20 19 20
30 28 28 30 35 27 28 25 25 7 9 5 14 16 16 28 27 14 26 25 13 12 20 26 8 15 14 10 18 7 7 5 3 4 9 18 9 23 9 8 5 9 20 21 20
30 29 30 31 36 32 26 29 8 11 2 5 9 14 26 21 28 12 21 20 13 6 14 16 8 2 10 7 6 9 11 3 6 8 14 9 8 22 1 3 7 7 15 18 22
31 31 33 32 34 32 34 10 14 11 7 3 7 9 26 21 23 32 10 17 24 19 5 13 11 19 5 8 9 20 16 6 9 6 9 7 11 10 8 19 36 29 39 35 25
29 29 29 33 36 37 31 15 9 5 10 7 3 10 13 23 8 25 34 7 23 26 17 10 11 6 6 7 16 12 16 8 5 2 3 5 7 8 8 7 13 18 19 17 15
26 27 34 33 37 41 12 22 5 5 4 12 9 6 11 17 18 19 26 33 5 22 14 5 7 7 19 9 13 13 10 7 7 7 7 4 4 9 2 7 6 7 8 12 16
25 9 23 30 37 25 13 6 5 3 5 5 3 1 4 7 17 15 10 17 18 18 18 3 3 3 13 17 19 6 10 7 3 4 6 3 7 8 13 7 7 8 15 21 18
21 8 23 41 14 3 12 8 8 5 4 4 3 3 2 6 6 19 17 23 33 17 25 9 4 5 13 15 20 22 19 17 7 9 6 1 9 3 7 7 12 17 20 19 18
14 17 23 45 12 6 4 4 5 4 5 6 5 4 6 2 5 6 21 12 21 24 17 15 5 8 3 2 1 14 18 17 17 2 13 9 9 5 5 6 15 22 23 20 18
14 3 9 23 14 5 6 4 5 2 5 5 5 7 3 7 7 7 10 9 20 25 37 24 14 7 14 2 7 10 20 18 20 14 13 14 17 13 4 8 11 19 23 20 16
7 5 7 4 12 7 6 10 16 7 4 10 2 7 9 6 9 12 12 19 18 23 22 17 22 24 23 9 4 11 22 26 23 26 17 21 18 24 13 11 20 29 24 20 17
12 7 3 3 16 8 12 7 14 10 8 4 4 11 11 10 14 13 3 5 8 12 14 17 15 20 21 23 19 6 18 20 25 24 25 20 12 21 16 21 20 28 26 21 16
23 17 17 8 7 7 7 12 13 8 6 10 17 5 8 21 26 22 10 6 9 12 17 15 10 15 17 28 25 24 26 21 19 22 25 22 27 15 7 14 23 27 25 25 21
Wind_Direction
271 255 254 255 254 254 253 256 261 263 272 279 281 280 280 274 271 266 259 259 259 254 254 253 244 249 263 261 340 16 57 193 219 168 169 1 128 102 133 173 193 224 277 293 249
265 271 258 252 253 251 258 255 256 258 260 267 275 280 283 285 285 269 262 266 264 253 251 248 246 237 214 213 191 124 131 216 217 302 325 338 92 138 153 165 217 232 267 275 242
258 258 267 265 252 253 250 254 256 255 254 255 261 270 278 286 302 281 278 254 242 245 243 242 232 183 180 188 196 171 193 200 235 211 347 344 343 329 148 198 214 206 298 268 227
262 263 257 265 266 256 249 249 251 255 259 252 251 254 261 262 243 254 275 244 227 216 223 220 190 173 172 190 197 158 226 206 214 201 309 310 318 313 237 218 163 259 290 264 245
259 259 259 253 259 255 257 249 247 248 253 254 247 244 238 231 238 299 288 315 257 210 209 204 191 172 178 189 186 179 211 226 248 258 274 274 264 265 260 254 244 268 255 273 257
257 257 261 253 254 257 256 261 250 248 247 251 249 237 230 235 260 239 245 299 265 233 206 197 220 198 178 193 177 216 211 224 239 251 262 242 259 245 233 244 242 245 246 266 265
258 252 252 253 260 255 257 261 257 253 247 244 242 242 231 230 254 244 242 247 257 241 216 201 207 182 185 159 239 198 245 304 234 237 250 289 287 229 227 240 245 244 256 263 270
258 256 255 256 251 253 266 258 257 256 250 245 239 246 253 249 248 247 277 223 241 216 215 219 199 247 215 272 36 194 116 149 255 194 223 155 257 169 223 231 243 248 253 265 270
257 254 249 248 253 254 247 259 264 263 260 247 244 238 264 232 228 239 231 232 217 210 198 204 208 218 219 122 42 348 209 200 287 205 168 187 270 236 231 227 239 249 256 261 268
256 252 248 245 242 245 254 243 247 251 250 249 239 231 235 203 219 234 228 211 209 187 178 196 183 183 195 177 208 184 203 240 210 214 222 214 255 261 229 206 244 254 260 272 275
257 256 249 245 242 243 237 236 233 242 224 211 226 219 357 209 199 215 215 201 202 206 186 179 199 215 199 204 33 157 183 198 232 235 196 238 247 266 264 256 260 264 266 265 263
257 251 251 249 240 240 231 220 219 228 239 234 237 244 234 200 179 211 202 180 187 202 149 191 227 199 160 187 208 185 207 212 281 277 190 318 273 254 260 248 247 258 260 261 264
254 248 246 245 241 232 228 229 238 235 265 233 232 238 225 221 222 197 192 186 181 190 199 206 269 176 170 191 200 220 215 164 146 10 314 355 289 241 245 244 246 245 253 254 256
253 244 236 235 238 227 227 225 222 224 244 217 206 240 219 229 222 210 203 183 186 201 189 222 220 164 174 197 188 221 176 148 175 97 245 123 274 241 182 243 234 249 249 253 252
250 236 231 230 231 216 221 212 207 207 242 202 192 211 207 201 160 201 207 208 199 167 165 213 174 202 204 212 187 214 143 200 163 165 32 234 286 256 49 285 271 268 259 253 248
245 239 236 232 236 228 213 203 188 207 232 183 166 179 160 192 214 167 188 201 214 203 203 216 194 183 204 169 184 138 79 77 130 157 240 235 196 274 245 225 214 230 251 254 257
241 235 234 224 225 226 205 182 211 213 106 198 182 173 189 190 206 198 185 187 197 194 198 216 202 224 162 149 153 163 145 160 214 209 234 167 173 243 168 231 176 228 263 278 283
242 234 232 229 217 213 191 204 220 189 179 212 197 181 195 188 210 204 219 208 202 191 181 196 202 207 185 184 185 195 184 172 198 202 234 146 218 241 218 239 253 259 263 269 277
232 233 234 228 216 210 194 215 216 155 172 144 67 197 207 205 186 206 209 203 205 188 204 208 222 156 197 183 166 187 210 182 105 51 70 211 288 297 243 228 248 239 251 273 283
225 227 234 223 212 201 222 215 172 185 122 205 175 193 188 196 211 192 203 220 229 206 223 220 224 187 197 165 204 183 160 190 206 197 224 237 259 231 204 243 249 216 180 153 139
219 231 243 212 212 201 208 202 126 162 135 146 142 294 209 236 217 210 210 214 192 200 207 190 225 209 151 200 193 160 191 209 171 197 206 227 246 201 233 211 196 157 159 156 149
209 229 256 202 192 185 201 151 138 173 118 93 106 103 244 219 252 224 223 209 187 176 209 197 189 197 203 201 204 200 203 196 192 213 217 207 242 239 233 212 176 173 168 155 148
199 213 204 173 195 180 94 96 162 119 166 147 151 208 179 227 299 239 231 222 198 192 196 186 215 187 170 293 305 217 212 206 223 56 203 215 240 216 193 160 189 175 172 165 164
174 169 189 186 211 113 133 146 144 163 148 136 164 180 152 259 176 282 322 254 212 201 208 195 230 232 229 229 137 199 214 212 211 223 223 221 242 244 235 203 180 183 179 179 174
180 193 183 180 189 162 163 175 193 166 226 172 62 164 178 224 240 230 248 264 269 211 204 209 227 234 240 248 210 206 216 215 213 219 217 226 219 245 216 195 186 187 187 178 176
147 139 97 114 142 147 173 192 192 184 152 207 187 191 184 200 222 261 146 212 229 199 205 211 231 228 239 235 230 216 222 221 218 228 232 240 237 237 231 202 195 195 188 186 182
160 146 144 149 134 152 187 193 199 139 221 196 210 188 204 227 234 258 237 240 278 254 205 209 219 230 238 234 234 238 229 218 226 227 226 224 230 226 180 191 202 203 201 191 180